Time,TemperatureF,DewpointF,PressureIn,WindDirection,WindDirectionDegrees,WindSpeedMPH,WindSpeedGustMPH,Humidity,HourlyPrecipIn,Conditions,Clouds,dailyrainin,SoftwareType,DateUTC
2013-01-31 00:00:00,26.6,22.4,29.54,WNW,284,14.0,26.0,84,0.00,,---,0.00,VWS V14.01,2013-01-31 05:00:00,
2013-01-31 00:30:00,27.4,24.3,29.51,WNW,284,15.0,27.0,88,0.00,,---,0.00,VWS V14.00,2013-01-31 05:30:00,
2013-01-31 01:00:00,26.6,22.4,29.54,WNW,284,14.0,26.0,84,0.00,,---,0.00,VWS V14.00,2013-01-31 06:00:00,
2013-01-31 01:30:00,25.9,22.3,29.55,WNW,294,14.0,29.0,86,0.00,,---,0.00,VWS V14.00,2013-01-31 06:30:00,
2013-01-31 02:00:00,25.4,20.7,29.57,WNW,284,15.0,29.0,82,0.00,,---,0.00,VWS V14.00,2013-01-31 07:00:00,
2013-01-31 02:30:00,24.5,20.9,29.59,West,267,21.0,24.0,86,0.00,,---,0.00,VWS V14.00,2013-01-31 07:30:00,
2013-01-31 03:00:00,23.9,20.1,29.61,West,280,17.0,24.0,85,0.00,,---,0.00,VWS V14.00,2013-01-31 08:00:00,
2013-01-31 03:30:00,23.3,17.8,29.63,WNW,290,19.0,30.0,79,0.00,,---,0.00,VWS V14.00,2013-01-31 08:30:00,
2013-01-31 04:00:00,23.1,20.4,29.64,West,276,13.0,28.0,89,0.00,,---,0.00,VWS V14.00,2013-01-31 09:00:00,
2013-01-31 04:30:00,22.7,18.9,29.65,West,262,13.0,25.0,85,0.00,,---,0.00,VWS V14.00,2013-01-31 09:30:00,
2013-01-31 05:00:00,22.0,18.5,29.66,WNW,283,17.0,24.0,86,0.00,,---,0.00,VWS V14.00,2013-01-31 10:00:00,
2013-01-31 05:30:00,21.3,17.0,29.68,WSW,256,19.0,26.0,83,0.00,,---,0.00,VWS V14.00,2013-01-31 10:30:00,
2013-01-31 06:00:00,20.3,17.6,29.70,WSW,246,14.0,25.0,89,0.00,,---,0.00,VWS V14.00,2013-01-31 11:00:00,
2013-01-31 06:30:00,19.6,15.3,29.71,West,266,15.0,27.0,83,0.00,,---,0.00,VWS V14.00,2013-01-31 11:30:00,
2013-01-31 07:00:00,19.1,15.9,29.72,West,264,12.0,27.0,87,0.00,,---,0.00,VWS V14.00,2013-01-31 12:00:00,
2013-01-31 07:30:00,19.6,13.6,29.74,West,281,14.0,24.0,77,0.00,,---,0.00,VWS V14.00,2013-01-31 12:30:00,
2013-01-31 08:00:00,18.6,15.6,29.75,West,281,13.0,24.0,88,0.00,,---,0.00,VWS V14.00,2013-01-31 13:00:00,
2013-01-31 08:30:00,17.9,14.4,29.76,WSW,242,12.0,23.0,86,0.00,,---,0.00,VWS V14.00,2013-01-31 13:30:00,
2013-01-31 09:00:00,18.8,15.3,29.78,West,274,12.0,22.0,86,0.00,,---,0.00,VWS V14.00,2013-01-31 14:00:00,
2013-01-31 09:30:00,18.8,15.3,29.80,West,274,12.0,22.0,86,0.00,,---,0.00,VWS V14.00,2013-01-31 14:30:00,
2013-01-31 10:00:00,19.1,16.7,29.81,WSW,242,7.0,17.0,90,0.00,,---,0.00,VWS V14.00,2013-01-31 15:00:00,
2013-01-31 10:30:00,19.8,16.8,29.82,West,271,10.0,17.0,88,0.00,,---,0.00,VWS V14.00,2013-01-31 15:30:00,
2013-01-31 11:00:00,20.9,17.6,29.83,West,278,11.0,20.0,87,0.00,,---,0.00,VWS V14.00,2013-01-31 16:00:00,
2013-01-31 11:30:00,21.5,17.7,29.83,WNW,294,14.0,20.0,85,0.00,,---,0.00,VWS V14.00,2013-01-31 16:30:00,
2013-01-31 12:00:00,21.0,18.0,29.83,WNW,285,11.0,17.0,88,0.00,,---,0.00,VWS V14.00,2013-01-31 17:00:00,
2013-01-31 12:30:00,21.3,18.3,29.84,West,266,11.0,19.0,88,0.00,,---,0.00,VWS V14.00,2013-01-31 17:30:00,
2013-01-31 13:00:00,22.9,18.2,29.83,West,272,16.0,21.0,82,0.00,,---,0.00,VWS V14.00,2013-01-31 18:00:00,
2013-01-31 13:30:00,20.4,17.2,29.85,WNW,293,10.0,25.0,87,0.00,,---,0.00,VWS V14.00,2013-01-31 18:30:00,
2013-01-31 14:00:00,20.3,14.8,29.85,WNW,292,11.0,21.0,79,0.00,,---,0.00,VWS V14.00,2013-01-31 19:00:00,
2013-01-31 14:30:00,20.5,14.4,29.87,WSW,255,17.0,23.0,77,0.00,,---,0.00,VWS V14.00,2013-01-31 19:30:00,
2013-01-31 15:00:00,20.4,14.9,29.87,WNW,283,14.0,23.0,79,0.00,,---,0.00,VWS V14.00,2013-01-31 20:00:00,
2013-01-31 15:30:00,20.0,15.4,29.88,West,269,12.0,24.0,82,0.00,,---,0.00,VWS V14.00,2013-01-31 20:30:00,
2013-01-31 16:00:00,18.6,15.4,29.89,WNW,285,11.0,19.0,87,0.00,,---,0.00,VWS V14.00,2013-01-31 21:00:00,
2013-01-31 16:30:00,18.2,15.5,29.89,West,278,10.0,21.0,89,0.00,,---,0.00,VWS V14.00,2013-01-31 21:30:00,
2013-01-31 17:00:00,17.6,15.4,29.90,West,278,11.0,17.0,91,0.00,,---,0.00,VWS V14.00,2013-01-31 22:00:00,
2013-01-31 17:30:00,17.2,14.5,29.91,WNW,283,8.0,16.0,89,0.00,,---,0.00,VWS V14.00,2013-01-31 22:30:00,
2013-01-31 18:00:00,16.8,12.8,29.92,WNW,298,11.0,20.0,84,0.00,,---,0.00,VWS V14.00,2013-01-31 23:00:00,
2013-01-31 18:30:00,16.6,10.1,29.94,NW,305,18.0,22.0,75,0.00,,---,0.00,VWS V14.00,2013-01-31 23:30:00,
2013-01-31 19:00:00,16.1,10.8,29.96,WNW,298,11.0,19.0,79,0.00,,---,0.00,VWS V14.00,2013-02-01 00:00:00,
2013-01-31 19:30:00,16.0,10.6,29.97,West,276,12.0,21.0,79,0.00,,---,0.00,VWS V14.00,2013-02-01 00:30:00,
2013-01-31 20:00:00,15.5,11.3,29.99,WNW,287,11.0,20.0,83,0.00,,---,0.00,VWS V14.00,2013-02-01 01:00:00,
2013-01-31 20:30:00,14.7,9.9,30.00,West,276,13.0,21.0,81,0.00,,---,0.00,VWS V14.00,2013-02-01 01:30:00,
2013-01-31 21:00:00,14.3,9.8,30.01,West,276,12.0,18.0,82,0.00,,---,0.00,VWS V14.00,2013-02-01 02:00:00,
2013-01-31 21:30:00,14.2,10.3,30.01,West,269,10.0,19.0,84,0.00,,---,0.00,VWS V14.00,2013-02-01 02:30:00,
2013-01-31 22:00:00,13.4,9.5,30.03,WNW,283,10.0,19.0,84,0.00,,---,0.00,VWS V14.00,2013-02-01 03:00:00,
2013-01-31 22:30:00,12.6,9.0,30.04,West,280,11.0,22.0,85,0.00,,---,0.00,VWS V14.00,2013-02-01 03:30:00,
2013-01-31 23:00:00,11.8,7.6,30.05,WNW,290,18.0,18.0,83,0.00,,---,0.00,VWS V14.00,2013-02-01 04:00:00,
2013-01-31 23:30:00,11.4,6.2,30.07,West,273,14.0,19.0,79,0.00,,---,0.00,VWS V14.00,2013-02-01 04:30:00,